{"data":{"norad_id":62881,"epoch":"2026-09-21T21:26:40.026912Z","epoch_age_seconds":47846,"freshness":"FRESH","line1":"1 62881U 25024C   26264.89351883  .00151757  00000+0  11581-2 0  9996","line2":"2 62881  43.0014  78.8738 0005007 269.9004  90.1290 15.70963165 94324","mean_motion":15.70963165,"eccentricity":0.0005007,"inclination_deg":43.0014,"raan_deg":78.8738,"arg_perigee_deg":269.9004,"mean_anomaly_deg":90.129,"bstar":0.0011581,"rev_number":9432,"period_min":91.663511410212,"perigee_km":352.77120192351,"apogee_km":359.51490997154,"semimajor_km":6734.2800559475,"source":"CELESTRAK","updated_at":"2026-09-22T09:00:49.702043Z"}}